El Centro, CA

7:00 AM PST on January 21, 2018 (GMT -0800)
El Centro Naval Air Facility

Weather History for KNJK - November, 2012

Change the Weather History Date:

Friday, November 30, 2012

  Actual Average Record
Temperature  
Mean Temperature 72 °F -  
Max Temperature 82 °F 69 °F 84 °F (2008)
Min Temperature 62 °F 45 °F 28 °F (2006)
Cooling Degree Days 7    
Growing Degree Days 22 (Base 50)    
Moisture  
Dew Point 53 °F    
Average Humidity 54    
Maximum Humidity 72    
Minimum Humidity 31    
Precipitation  
Precipitation 0.00 in - - ()
Sea Level Pressure  
Sea Level Pressure 30.09 in    
Wind  
Wind Speed 9 mph (WSW)    
Max Wind Speed 17 mph    
Max Gust Speed 22 mph    
Visibility 10 miles    
Events      
Averages and records for this station are not official NWS values.
T = Trace of Precipitation, MM = Missing Value Source: NWS Daily Summary

Daily Weather History Graph

Daily Weather History Graph

Search for Another Location

Airport or City:

Trip Planner

Search our weather history database for the weather conditions in past years. The results will help you decide how hot, cold, wet, or windy it might be!

Date:

Astronomy

Nov. 30, 2012 Rise Set
Actual Time 6:26 AM PST 4:36 PM PST
Civil Twilight 5:59 AM PST 5:03 PM PST
Nautical Twilight 5:29 AM PST 5:33 PM PST
Astronomical Twilight 4:59 AM PST 6:03 PM PST
Moon 6:34 PM PST (11/30) 8:02 AM PST (11/30)
Length of Visible Light 11h 03m
Length of Day
10h 09m
Waning Gibbous, 96% of the Moon is Illuminated
Nov 30
Waning Gibbous
Dec 6
Last Quarter
Dec 13
New
Dec 19
First Quarter
Dec 28
Full

Hourly Weather History & Observations

Time (PST) Temp. Dew Point Humidity Pressure Visibility Wind Dir Wind Speed Gust Speed Precip Events Conditions
12:56 AM 63.0 °F 53.1 °F 70% 30.11 in 10.0 mi SW 9.2 mph - N/A   Clear
1:56 AM 63.0 °F 52.0 °F 67% 30.11 in 10.0 mi WSW 8.1 mph - N/A   Clear
2:56 AM 66.0 °F 54.0 °F 65% 30.11 in 10.0 mi SW 9.2 mph - N/A   Clear
3:56 AM 66.9 °F 54.0 °F 63% 30.09 in 10.0 mi SSW 10.4 mph - N/A   Clear
4:56 AM 63.0 °F 54.0 °F 72% 30.10 in 10.0 mi SW 6.9 mph - N/A   Clear
5:56 AM 63.0 °F 53.1 °F 70% 30.11 in 10.0 mi SW 9.2 mph - N/A   Partly Cloudy
6:56 AM 62.1 °F 52.0 °F 70% 30.13 in 10.0 mi SW 8.1 mph - N/A   Scattered Clouds
7:56 AM 68.0 °F 55.0 °F 63% 30.13 in 10.0 mi WSW 5.8 mph - N/A   Scattered Clouds
8:56 AM 73.9 °F 55.0 °F 52% 30.14 in 10.0 mi SW 12.7 mph - N/A   Scattered Clouds
9:56 AM 78.1 °F 52.0 °F 40% 30.13 in 10.0 mi West 12.7 mph - N/A   Scattered Clouds
10:56 AM 79.0 °F 51.1 °F 38% 30.12 in 10.0 mi West 9.2 mph - N/A   Scattered Clouds
11:56 AM 80.1 °F 51.1 °F 36% 30.09 in 10.0 mi WSW 5.8 mph - N/A   Scattered Clouds
12:56 PM 82.0 °F 50.0 °F 33% 30.06 in 10.0 mi Variable 5.8 mph - N/A   Mostly Cloudy
1:56 PM 82.0 °F 48.9 °F 31% 30.04 in 10.0 mi West 6.9 mph - N/A   Mostly Cloudy
2:56 PM 82.0 °F 48.9 °F 31% 30.05 in 10.0 mi West 6.9 mph - N/A   Mostly Cloudy
3:56 PM 78.1 °F 50.0 °F 37% 30.06 in 10.0 mi West 17.3 mph 21.9 mph N/A   Mostly Cloudy
4:56 PM 75.9 °F 53.1 °F 45% 30.07 in 10.0 mi WSW 15.0 mph - N/A   Mostly Cloudy
5:56 PM 73.0 °F 54.0 °F 51% 30.08 in 10.0 mi West 5.8 mph - N/A   Mostly Cloudy
6:56 PM 72.0 °F 54.0 °F 53% 30.08 in 10.0 mi West 10.4 mph - N/A   Clear
7:56 PM 70.0 °F 54.0 °F 57% 30.07 in 10.0 mi West 9.2 mph - N/A   Clear
8:56 PM 68.0 °F 55.0 °F 63% 30.07 in 10.0 mi WSW 6.9 mph - N/A   Clear
9:56 PM 64.0 °F 52.0 °F 65% 30.07 in 10.0 mi NW 4.6 mph - N/A   Clear
10:56 PM 63.0 °F 52.0 °F 67% 30.08 in 10.0 mi West 8.1 mph - N/A   Clear
11:56 PM 64.0 °F 52.0 °F 65% 30.08 in 10.0 mi West 11.5 mph - N/A   Clear